Location: Goettingen
(51.5300°N, 9.9433°E)
Time: 17:19:26
(UTC+02:00)

ISS - Pass Details

Date: 25 May 2018
Orbit: 402 x 407 km, 51.6° (Epoch: 27 May)

Event Time Altitude Azimuth Distance (km) Brightness Sun altitude
Rises 21:58:52 0° 241° (WSW) 2,315 0.2 -5.5°
Reaches altitude 10° 22:00:58 10° 237° (WSW) 1,457 -0.8 -5.7°
Maximum altitude 22:04:09 53° 160° (SSE) 501 -3.7 -6.0°
Drops below altitude 10° 22:07:22 10° 82° (E) 1,460 -1.3 -6.4°
Sets 22:09:28 0° 77° (ENE) 2,321 -0.3 -6.6°
